Flag for Belgium Weather past 2 weeks in Brussels, Belgium

Now
41 °F

Clear.


Feels Like: 35 °F
Forecast: 48 / 53 °F
Wind: 10 mph from South

Location: Brussels National Airport

Current Time: Mar 28, 2015 at 7:10:50 AM

Latest Report: Mar 28, 2015 at 6:20 AM


Visibility: 10 mi

Pressure: 30.12 "Hg

Humidity: 76%

Dew point: 34 °F

Location of BrusselsLocation

Historic Weather in Brussels — Graph

°F

Brussels temperature yesterday

Maximum temperature yesterday: 50 °F (at 1:50 PM)
Minimum temperature yesterday: 36 °F (at 9:20 PM)
Average temperature yesterday: 43 °F

Past Weeks' High & Low Weather Summary

 TemperatureHumidityPressure
High63 °F (Mar 17, 2:50 PM)100% (Mar 16, 8:20 AM)30.42 "Hg (Mar 16, 8:20 AM)
Low28 °F (Mar 23, 2:50 AM)39% (Mar 17, 3:50 PM)29.68 "Hg (Mar 26, 1:50 PM)
Average42 °F81%30.13 "Hg
* Reported Mar 13 5:20 AM — Mar 28 5:50 AM, Brussels, Weather by CustomWeather, © 2015

Note: Actual official high and low records may vary slightly from our data, if they occured in-between our weather recording intervals... More about our weather records

Advertising

Brussels weather history for previous 24 hours

 ConditionsComfort  
Time TempWeatherWind HumidityBarometerVisibility
5:50 AM
Sat, Mar 28
41 °FPassing clouds.10 mph76%30.12 "HgN/A
5:20 AM41 °FPassing clouds.7 mph76%30.12 "HgN/A
4:50 AM41 °FPassing clouds.7 mph81%30.15 "HgN/A
4:20 AM41 °FClear.8 mph81%30.15 "Hg10 mi
3:50 AM41 °FClear.7 mph81%30.15 "Hg10 mi
3:20 AM39 °FPassing clouds.7 mph87%30.18 "HgN/A
2:50 AM39 °FPassing clouds.7 mph87%30.18 "HgN/A
2:20 AM39 °FPassing clouds.7 mph81%30.18 "HgN/A
1:50 AM36 °FPassing clouds.6 mph87%30.18 "HgN/A
1:20 AM36 °FPassing clouds.6 mph87%30.18 "HgN/A
12:50 AM36 °FPassing clouds.6 mph87%30.21 "HgN/A
12:20 AM34 °FClear.5 mph87%30.21 "Hg10 mi
11:50 PM
Fri, Mar 27
36 °FClear.3 mph81%30.21 "Hg10 mi
11:20 PM36 °FClear.5 mph87%30.21 "Hg10 mi
10:50 PM36 °FClear.5 mph87%30.21 "Hg10 mi
10:20 PM37 °FClear.5 mph81%30.21 "Hg10 mi
9:50 PM37 °FClear.3 mph81%30.21 "Hg10 mi
9:20 PM36 °FClear.3 mph87%30.21 "Hg10 mi
8:50 PM41 °FClear.2 mph66%30.21 "Hg10 mi
8:20 PM43 °FClear.3 mph61%30.21 "Hg10 mi
7:50 PM43 °FClear.5 mph66%30.18 "Hg10 mi
7:20 PM45 °FPassing clouds.7 mph57%30.21 "HgN/A
6:50 PM46 °FPassing clouds.10 mph57%30.18 "HgN/A
6:20 PM48 °FPassing clouds.9 mph54%30.18 "HgN/A
5:50 PM48 °FPassing clouds.10 mph54%30.18 "HgN/A
5:20 PM48 °FScattered clouds.13 mph54%30.15 "HgN/A
4:50 PM48 °FScattered clouds.13 mph54%30.15 "HgN/A
4:20 PM50 °FScattered clouds.12 mph54%30.15 "HgN/A
3:50 PM50 °FScattered clouds.14 mph54%30.15 "HgN/A
3:20 PM50 °FScattered clouds.15 mph54%30.15 "HgN/A
2:50 PM50 °FScattered clouds.16 mph58%30.12 "HgN/A
2:20 PM48 °FScattered clouds.17 mph58%30.12 "HgN/A
1:50 PM50 °FScattered clouds.16 mph58%30.12 "HgN/A
1:20 PM48 °FScattered clouds.13 mph66%30.12 "HgN/A
12:50 PM48 °FScattered clouds.15 mph66%30.12 "HgN/A
12:20 PM46 °FScattered clouds.13 mph71%30.12 "HgN/A
11:50 AM46 °FBroken clouds.12 mph71%30.09 "HgN/A
11:20 AM46 °FScattered clouds.15 mph71%30.09 "HgN/A
10:50 AM46 °FScattered clouds.14 mph71%30.09 "HgN/A
10:20 AM45 °FScattered clouds.13 mph76%30.09 "HgN/A
9:50 AM45 °FScattered clouds.14 mph76%30.07 "HgN/A
9:20 AM45 °FPassing clouds.15 mph76%30.07 "HgN/A
8:50 AM43 °FPassing clouds.13 mph76%30.07 "HgN/A
8:20 AM41 °FPassing clouds.13 mph81%30.04 "HgN/A
7:50 AM41 °FPassing clouds.13 mph81%30.04 "HgN/A
7:20 AM39 °FScattered clouds.13 mph81%30.01 "HgN/A
Weather by CustomWeather, © 2015

See weather overviewHow to use our weather pages